{"data":{"norad_id":67035,"intl_designator":"2025-294F","name":"STARLINK-36085","alt_names":[],"object_type":"PAYLOAD","status":"ACTIVE","operator":null,"country":"US","launch_date":"2025-12-11","launch_site_code":"AFETR","launch_vehicle":null,"mission":null,"orbit_class":"UNKNOWN","rcs_meters":null,"size_class":null,"mass_kg":null,"dimensions":null,"purposes":["comms"],"wikipedia_slug":null,"has_3d_model":false,"image_url":null,"decayed_at":null,"tle_current":{"epoch":"2026-09-20T14:18:37.789344Z","epoch_age_seconds":73167,"freshness":"FRESH","line1":"1 67035U 25294F   26263.59627071  .00009724  00000+0  36232-3 0  9999","line2":"2 67035  43.0006  17.6911 0000410 211.9075 148.1752 15.27586432 44606","mean_motion":15.27586432,"eccentricity":4.1e-5,"inclination_deg":43.0006,"raan_deg":17.6911,"arg_perigee_deg":211.9075,"mean_anomaly_deg":148.1752,"bstar":0.00036232,"rev_number":4460,"period_min":94.2663517975,"perigee_km":482.74852854504,"apogee_km":483.31114422562,"semimajor_km":6861.1668363853,"source":"CELESTRAK","updated_at":"2026-09-21T09:00:36.092020Z"}}}